Temperature
24 23 22 23 24 24 24 23 23 23 24 24 23 22 22 22 22 22 22 22 22 21 21 21 20 20 19 19 19 18 18 18 17 17 17 17 17 17 17 16 16 16 17 17
23 23 24 25 25 24 24 23 23 23 24 24 23 22 22 22 22 22 22 22 22 22 21 21 20 20 19 19 19 18 18 18 17 17 17 17 17 17 17 16 16 16 16 16
23 23 25 25 24 24 24 23 23 22 23 24 23 22 22 23 23 22 22 23 22 22 22 21 20 20 20 19 19 19 18 18 18 17 17 17 17 17 17 16 16 16 16 16
23 24 24 24 24 24 23 24 24 23 22 22 23 21 22 23 22 22 22 23 23 22 22 21 21 20 20 19 19 19 19 18 18 17 17 17 17 17 17 16 16 16 16 16
23 24 24 23 24 24 23 24 24 23 22 22 23 22 22 23 22 23 23 23 23 22 22 21 21 21 20 20 19 19 19 18 18 18 17 17 17 17 17 17 16 16 16 16
24 24 24 24 24 24 24 24 23 23 22 21 23 23 22 23 23 23 23 23 23 22 22 21 21 21 20 20 19 19 19 18 18 18 17 17 17 17 17 17 16 16 16 16
23 24 25 25 24 24 24 22 21 21 20 21 24 23 23 24 25 24 24 23 23 22 22 21 21 20 20 20 19 19 19 18 18 18 17 17 17 17 17 17 17 17 16 16
22 22 24 25 24 23 23 22 20 20 21 22 24 23 24 25 25 24 24 23 23 22 22 21 21 20 20 20 19 19 19 18 18 18 17 17 17 17 17 17 17 17 17 16
23 23 25 25 25 24 23 23 23 22 22 22 23 24 24 25 24 24 24 23 23 22 22 21 21 20 20 20 19 19 19 18 18 18 18 17 17 17 17 17 17 17 17 16
24 23 24 25 25 24 24 24 23 22 21 21 22 22 22 23 24 24 23 23 23 22 22 21 20 20 20 19 19 19 19 18 18 18 18 17 17 17 17 17 17 17 17 16
24 23 23 24 24 24 24 24 24 23 22 21 20 21 24 23 24 24 23 23 23 22 21 21 20 20 20 19 19 19 19 18 18 18 18 17 17 17 17 17 17 17 17 16
24 23 23 24 25 25 25 24 24 22 22 22 21 21 24 24 24 24 24 23 23 22 21 21 20 20 19 19 19 19 19 18 18 18 18 18 17 17 17 17 17 16 16 16
23 23 22 22 23 24 24 25 24 24 23 22 21 22 24 24 24 24 23 23 22 22 21 21 20 19 19 19 19 19 18 18 18 18 18 17 17 17 17 17 16 16 16 16
22 23 22 21 22 23 23 24 24 24 22 22 22 22 23 23 23 23 23 22 22 21 21 20 20 19 19 19 19 19 18 18 18 18 18 17 17 17 17 17 16 16 16 16
23 22 23 23 24 24 24 23 24 23 23 22 23 23 24 23 23 23 23 22 22 21 21 20 20 19 19 19 19 19 18 18 18 18 17 17 17 17 17 16 16 16 16 16
24 23 23 23 24 24 24 24 24 24 24 23 23 23 24 24 24 23 23 22 21 21 20 20 19 19 19 19 19 18 18 18 18 17 17 17 17 17 16 16 16 16 15 15
23 23 22 22 23 23 23 24 24 24 24 24 23 23 24 23 23 23 22 22 21 21 20 20 19 19 19 19 19 18 18 18 18 17 17 17 17 16 16 16 16 15 15 15
23 22 22 22 22 21 23 25 25 24 24 24 24 24 23 23 23 22 22 21 20 20 20 19 19 19 19 19 18 18 18 18 17 17 17 16 16 16 16 16 15 15 15 15
23 22 21 21 21 21 23 24 24 24 23 24 24 23 23 23 22 22 21 21 20 20 19 19 19 19 19 19 18 18 18 17 17 17 16 16 16 16 15 15 15 15 15 14
23 23 22 21 20 20 22 24 24 24 22 23 23 23 23 22 21 20 20 20 20 19 19 19 19 19 19 18 18 18 17 17 17 16 16 16 16 15 15 15 15 14 14 14
22 21 21 21 21 21 23 24 24 22 22 23 23 22 22 21 21 20 20 19 19 19 18 18 18 18 18 18 18 17 17 17 17 16 16 16 15 15 15 15 14 14 14 14
21 21 21 21 20 20 23 23 22 22 23 22 22 21 21 20 20 19 19 18 18 18 18 18 18 18 18 18 18 17 17 17 16 16 16 15 15 15 14 14 14 14 13 13
22 21 21 21 21 22 22 22 22 22 22 21 21 21 20 19 19 18 18 18 18 17 17 17 17 17 17 17 17 17 17 16 16 16 15 15 15 14 14 14 14 13 13 13
21 22 21 21 21 21 21 21 21 21 21 20 20 20 19 19 18 18 18 17 17 17 17 17 17 17 17 16 16 16 16 16 16 15 15 15 14 14 14 14 13 13 13 12
20 20 21 21 21 21 20 20 20 20 19 19 19 19 18 18 18 17 17 17 17 16 16 16 16 16 16 16 16 16 15 15 15 15 14 14 14 14 13 13 13 13 12 12
19 19 19 19 20 20 20 20 19 19 19 18 18 18 18 17 17 17 16 16 16 16 16 15 15 15 15 15 15 15 15 15 14 14 14 14 13 13 13 13 12 12 12 12
Wind_Speed
6 4 3 5 6 5 4 3 1 1 2 3 4 5 6 7 7 8 8 9 10 9 9 9 8 8 7 6 7 7 7 6 5 3 2 2 2 1 2 3 4 4 4 5
3 3 5 4 3 4 3 2 1 1 1 2 3 4 6 9 9 9 9 9 9 9 9 10 10 9 7 6 6 7 7 7 6 4 3 3 3 2 2 2 3 4 4 4
3 3 3 3 4 3 3 2 1 2 3 3 3 5 7 9 9 7 7 7 9 11 11 11 10 9 8 7 6 7 7 7 7 6 2 2 3 1 2 2 1 1 3 4
2 4 3 3 3 3 3 1 2 4 4 4 5 3 4 8 9 10 9 8 7 8 9 10 10 10 9 8 7 7 6 7 7 7 4 4 3 2 3 3 2 2 3 3
2 2 2 3 3 3 2 2 3 5 5 6 8 4 3 7 8 10 10 9 8 8 8 9 9 9 9 8 6 6 6 6 6 6 5 4 3 2 2 3 3 3 2 3
3 3 3 3 2 2 2 4 5 6 4 6 7 4 2 4 7 9 10 9 8 8 8 9 8 7 7 8 6 5 6 6 6 6 6 5 4 3 3 3 3 3 2 2
4 5 5 4 3 4 4 3 3 2 3 4 3 2 1 3 4 5 7 8 8 8 8 9 9 8 7 8 8 6 7 6 6 6 7 6 5 4 4 3 3 3 2 2
5 5 5 5 4 4 4 3 3 2 2 3 2 2 2 4 4 5 5 6 7 8 8 9 9 8 8 8 8 7 7 7 6 6 6 6 5 4 3 4 3 3 3 3
3 2 3 4 4 5 4 4 5 5 6 4 2 2 3 4 4 5 7 7 7 9 8 8 9 8 8 8 8 7 7 7 7 7 6 5 5 4 4 3 3 3 2 3
4 3 4 3 4 6 7 6 4 3 3 3 2 1 1 3 4 5 6 7 7 8 8 8 8 8 8 7 7 7 7 7 7 7 6 5 5 4 4 3 3 3 3 2
5 4 4 5 5 5 6 6 5 4 3 2 2 2 1 3 4 4 5 7 8 8 8 8 7 6 7 7 6 6 6 6 6 6 5 5 5 5 4 3 3 3 3 4
4 4 5 6 6 5 6 5 4 3 4 2 2 2 1 3 3 3 5 6 7 7 7 8 7 7 6 7 6 6 6 6 6 5 5 5 5 4 4 4 3 4 3 3
5 4 4 4 4 5 6 6 6 5 4 3 2 2 2 3 3 3 4 5 6 7 7 7 7 6 6 7 6 6 5 5 5 5 5 4 4 4 4 4 3 4 4 4
4 5 4 5 4 4 5 6 7 6 4 4 3 3 2 2 3 3 4 5 6 6 7 7 7 6 6 7 6 6 5 5 5 5 5 4 4 4 4 3 3 3 3 3
5 7 7 7 7 7 7 7 7 7 6 5 4 4 2 2 3 3 5 5 5 6 6 6 7 6 6 6 6 6 6 6 6 6 5 4 3 4 4 3 3 2 2 2
7 7 7 8 8 9 9 9 10 8 7 6 6 5 2 1 3 3 4 5 5 5 5 6 6 6 7 7 6 6 6 6 6 6 5 4 3 4 4 4 3 3 2 2
7 8 8 8 8 9 10 9 9 8 6 6 5 2 1 1 0 2 3 3 5 5 5 5 6 6 6 6 6 6 7 7 7 7 5 4 4 4 4 4 4 3 3 2
10 9 6 7 8 9 4 4 5 5 4 3 1 1 1 1 1 2 4 3 3 4 4 4 4 5 5 5 6 6 6 6 6 6 6 5 5 4 4 4 3 3 2 3
10 8 6 6 8 7 6 5 4 4 4 2 2 2 1 0 1 2 3 3 3 3 3 3 3 4 4 5 6 7 6 6 6 6 6 6 6 5 4 4 4 3 2 2
11 10 8 8 8 8 3 2 3 4 5 3 2 2 1 2 2 1 3 3 4 3 3 3 2 2 3 4 5 6 7 6 5 5 5 5 5 5 5 4 3 3 2 2
10 10 11 11 10 5 1 1 2 4 2 2 2 1 1 1 1 3 4 4 4 4 4 3 3 2 2 3 5 6 5 5 5 5 5 5 5 5 5 4 3 3 2 2
8 6 9 9 9 6 1 2 2 1 2 2 2 2 3 4 4 4 4 4 4 4 4 4 3 2 2 3 5 5 4 4 5 5 5 5 5 5 5 5 3 3 3 2
7 5 4 5 3 1 1 1 3 4 2 2 2 1 2 3 3 3 3 3 4 4 3 3 3 3 3 3 4 4 4 5 5 5 5 5 5 4 4 5 4 3 3 2
6 6 7 7 4 3 3 2 1 2 3 3 2 1 2 2 2 3 2 2 3 3 3 3 3 3 2 2 3 3 3 4 5 5 5 4 4 4 4 3 3 3 2 2
6 6 8 9 6 4 3 2 1 1 2 2 2 1 1 1 1 1 2 1 2 2 2 2 2 2 2 3 3 3 3 3 4 5 4 4 4 4 3 3 2 2 1 2
9 9 9 7 6 5 3 2 1 1 0 1 1 1 0 0 0 0 1 1 2 2 2 2 2 2 2 3 3 3 3 3 3 4 4 3 3 4 4 3 2 3 2 2
Wind_Direction
210 219 235 241 244 267 275 276 277 282 192 202 200 193 189 190 195 190 189 191 189 185 177 163 157 154 153 157 150 143 149 148 128 116 108 107 103 85 76 68 56 42 48 56
211 235 260 253 252 268 239 234 275 328 270 234 211 223 202 196 202 199 199 197 189 178 170 162 165 165 170 168 161 159 159 148 138 137 143 143 136 122 99 69 56 45 59 55
234 265 270 249 242 250 255 246 245 277 296 271 254 246 211 195 198 199 210 210 193 182 177 170 171 169 171 170 172 166 156 146 142 143 133 112 91 88 105 112 95 50 75 76
249 267 272 275 271 274 280 274 232 241 261 263 235 251 204 186 189 192 200 206 198 184 175 170 172 172 174 174 172 166 162 155 148 141 150 150 162 180 168 154 156 148 116 96
233 248 256 264 275 294 287 292 271 260 262 270 260 244 214 177 190 189 188 192 190 183 177 169 169 170 174 169 167 167 161 150 146 149 152 170 191 185 146 139 148 152 131 125
246 262 284 276 276 254 245 276 268 253 257 259 247 229 204 185 195 182 178 181 183 178 169 167 162 162 166 155 157 158 155 153 153 157 165 189 194 172 150 154 155 155 143 159
242 229 228 219 231 231 244 286 301 260 221 246 224 211 196 160 166 173 175 176 178 175 171 167 162 164 158 152 157 160 157 159 164 173 182 183 184 181 175 170 166 165 157 168
234 229 216 219 244 259 250 246 258 291 278 292 266 203 129 121 136 153 154 164 168 167 168 164 161 161 158 158 161 167 166 168 172 181 187 185 176 177 182 179 168 178 175 175
260 240 230 226 237 258 273 253 242 264 278 278 258 138 119 120 130 145 154 162 167 162 162 159 158 160 160 161 166 172 168 169 176 187 187 185 174 176 176 178 179 172 170 158
275 259 250 236 232 238 259 280 277 266 287 286 280 242 188 163 152 159 160 162 161 153 154 153 157 160 160 163 167 172 168 173 180 185 186 181 172 176 171 175 181 160 160 140
274 263 241 235 229 243 240 251 267 278 253 253 289 334 72 115 131 150 158 161 158 154 152 151 155 155 155 157 162 171 170 173 178 184 186 171 166 172 167 169 170 158 157 152
285 275 249 239 236 240 251 261 263 267 277 257 232 254 133 108 107 130 147 145 144 144 147 150 153 156 158 160 168 174 176 173 174 176 167 162 162 162 163 171 174 166 165 160
333 286 267 247 229 222 242 252 259 258 266 272 262 218 160 114 105 113 125 127 132 141 143 148 153 161 162 162 168 173 169 162 161 159 157 159 158 161 165 170 174 174 174 167
306 269 269 271 285 283 267 272 273 267 261 266 252 236 199 137 125 129 133 138 137 145 148 148 154 161 164 164 167 166 159 151 148 146 153 156 162 162 162 165 159 167 170 160
252 266 262 267 272 276 278 278 274 268 265 260 262 261 260 162 154 157 149 145 146 152 154 154 157 160 160 160 161 161 157 150 150 147 150 154 159 149 140 140 141 141 130 129
255 265 271 264 268 272 266 266 268 264 254 249 254 258 272 115 141 152 156 153 155 156 159 161 163 163 163 164 169 165 160 153 150 146 147 147 145 131 130 133 131 126 113 105
257 259 271 271 268 275 263 257 255 253 250 248 252 250 230 257 200 132 127 133 149 151 156 163 169 171 171 172 172 162 160 154 153 149 147 144 140 131 132 134 132 135 143 143
262 267 264 269 266 261 261 269 264 248 245 248 244 268 261 236 121 95 102 111 132 142 155 166 174 172 175 175 165 154 149 147 146 148 151 149 144 137 137 137 142 149 146 145
249 256 265 268 268 262 253 258 256 253 246 237 226 229 240 165 119 111 101 111 127 131 142 156 174 175 177 170 159 150 147 148 149 150 154 151 150 148 148 150 156 152 146 141
233 241 247 257 266 268 236 259 267 252 240 205 211 190 186 200 208 121 84 80 96 108 126 143 169 167 159 159 154 150 154 155 154 151 154 154 153 152 156 160 159 146 147 159
224 231 237 248 254 257 251 332 272 250 249 146 169 144 121 115 79 109 101 89 92 101 116 118 134 151 152 151 149 156 157 158 154 149 153 153 154 157 155 154 150 146 157 165
246 243 243 247 250 243 217 242 261 351 37 28 67 94 100 84 74 86 96 106 110 106 109 121 127 131 128 138 147 150 151 149 142 144 148 151 153 159 153 148 156 157 155 166
245 251 265 259 254 270 285 309 337 350 350 20 44 58 94 92 98 96 90 103 126 126 123 115 116 115 120 132 141 151 150 139 137 137 145 149 149 145 146 151 155 158 164 175
264 260 259 261 246 244 263 292 323 358 19 24 33 20 73 112 111 105 97 93 118 122 123 126 129 125 125 129 132 133 130 139 146 149 151 149 142 136 137 138 146 154 172 181
280 285 269 262 252 250 247 263 302 29 38 23 19 17 40 87 107 101 102 92 117 117 121 135 142 141 140 124 117 112 128 146 149 149 145 143 138 139 136 118 107 141 157 185
260 262 263 267 271 265 254 220 204 235 249 291 320 310 246 259 200 264 148 158 144 140 150 149 140 145 151 140 132 125 134 145 153 151 146 144 139 137 134 127 95 58 79 106
Height
1504 1507 1509 1506 1503 1503 1504 1507 1509 1508 1505 1507 1510 1512 1513 1515 1517 1518 1521 1522 1525 1527 1530 1533 1536 1538 1541 1543 1544 1546 1547 1549 1550 1551 1552 1553 1554 1554 1555 1555 1556 1556 1556 1556
1505 1508 1503 1500 1500 1501 1504 1508 1510 1508 1504 1506 1510 1511 1510 1512 1514 1516 1517 1519 1522 1525 1528 1531 1534 1537 1540 1542 1544 1545 1547 1548 1549 1551 1552 1553 1554 1555 1555 1555 1556 1556 1556 1557
1507 1505 1500 1500 1501 1503 1505 1508 1509 1511 1508 1506 1510 1513 1510 1508 1511 1513 1515 1517 1519 1522 1525 1529 1532 1535 1538 1540 1542 1544 1546 1547 1549 1550 1552 1553 1554 1554 1555 1556 1556 1556 1556 1557
1505 1502 1502 1502 1503 1504 1509 1504 1505 1508 1513 1515 1510 1522 1510 1506 1508 1510 1513 1515 1517 1520 1523 1526 1530 1533 1536 1539 1541 1543 1545 1546 1548 1549 1551 1552 1553 1554 1555 1555 1556 1556 1556 1557
1505 1502 1503 1505 1504 1503 1506 1503 1504 1506 1511 1515 1509 1515 1511 1502 1507 1507 1509 1512 1515 1518 1521 1524 1528 1531 1534 1537 1540 1542 1544 1545 1547 1548 1550 1551 1552 1553 1554 1555 1556 1556 1556 1557
1502 1501 1501 1502 1502 1502 1503 1504 1505 1505 1512 1523 1510 1513 1513 1503 1501 1502 1505 1509 1512 1516 1519 1523 1526 1529 1533 1535 1538 1540 1542 1544 1545 1547 1549 1550 1551 1553 1554 1555 1555 1556 1556 1557
1506 1502 1501 1502 1504 1504 1504 1513 1524 1525 1527 1521 1502 1507 1508 1496 1495 1498 1502 1506 1510 1514 1517 1521 1524 1528 1531 1533 1536 1538 1540 1542 1544 1546 1547 1549 1550 1551 1553 1554 1554 1555 1555 1556
1512 1511 1501 1500 1503 1505 1505 1511 1528 1535 1530 1518 1503 1507 1500 1492 1494 1498 1501 1505 1508 1512 1516 1519 1522 1526 1529 1531 1534 1536 1538 1540 1542 1544 1546 1547 1549 1550 1551 1553 1553 1554 1555 1555
1506 1508 1497 1497 1498 1501 1506 1507 1503 1513 1514 1518 1510 1501 1496 1492 1494 1497 1501 1504 1507 1511 1514 1517 1521 1524 1527 1529 1532 1534 1536 1538 1540 1542 1544 1546 1547 1549 1550 1551 1552 1553 1554 1554
1499 1507 1499 1496 1498 1499 1500 1500 1504 1512 1525 1528 1517 1510 1508 1498 1497 1497 1500 1503 1506 1510 1513 1516 1519 1522 1525 1527 1530 1533 1535 1537 1539 1541 1542 1544 1546 1547 1549 1550 1551 1552 1552 1553
1496 1504 1504 1499 1501 1502 1501 1501 1502 1505 1509 1524 1530 1521 1497 1496 1495 1497 1499 1502 1505 1509 1512 1515 1518 1520 1523 1526 1528 1531 1533 1535 1537 1539 1541 1542 1544 1546 1547 1548 1549 1550 1551 1552
1497 1501 1505 1499 1492 1492 1494 1497 1501 1514 1513 1509 1520 1519 1493 1494 1495 1496 1499 1501 1504 1508 1511 1514 1516 1519 1521 1524 1526 1529 1531 1533 1535 1537 1539 1541 1542 1544 1545 1546 1547 1548 1549 1550
1500 1503 1510 1508 1503 1495 1495 1494 1494 1498 1503 1509 1518 1515 1493 1493 1495 1497 1499 1501 1504 1507 1510 1513 1515 1517 1520 1522 1525 1527 1529 1531 1533 1535 1537 1538 1540 1542 1543 1544 1545 1547 1548 1549
1502 1502 1509 1516 1508 1499 1499 1496 1494 1497 1507 1509 1508 1505 1496 1495 1496 1497 1499 1501 1503 1506 1509 1511 1514 1516 1518 1521 1523 1525 1528 1530 1531 1533 1535 1536 1538 1540 1541 1543 1544 1545 1546 1547
1499 1502 1499 1497 1494 1494 1495 1495 1494 1496 1497 1503 1502 1499 1495 1493 1495 1497 1498 1500 1503 1505 1508 1510 1512 1514 1517 1519 1521 1524 1526 1528 1530 1531 1533 1534 1536 1538 1539 1540 1542 1543 1544 1545
1496 1498 1497 1498 1493 1492 1493 1492 1492 1492 1492 1494 1495 1496 1490 1491 1493 1495 1497 1499 1501 1504 1506 1509 1511 1513 1515 1517 1520 1522 1524 1526 1528 1530 1531 1533 1535 1536 1537 1538 1540 1541 1542 1543
1495 1497 1502 1502 1494 1493 1497 1488 1487 1488 1487 1490 1494 1493 1490 1492 1493 1494 1496 1498 1500 1503 1505 1507 1509 1511 1513 1515 1518 1520 1522 1524 1526 1528 1530 1531 1533 1534 1535 1537 1538 1539 1540 1540
1495 1496 1498 1500 1500 1509 1492 1480 1480 1483 1484 1484 1487 1488 1490 1491 1492 1494 1495 1497 1499 1502 1504 1506 1508 1510 1512 1514 1516 1518 1521 1522 1524 1526 1528 1529 1531 1532 1533 1535 1536 1537 1538 1538
1491 1494 1499 1501 1503 1497 1487 1481 1480 1484 1486 1484 1486 1488 1490 1491 1492 1494 1496 1497 1499 1501 1502 1504 1507 1508 1510 1512 1514 1516 1518 1521 1522 1524 1526 1527 1528 1530 1531 1532 1534 1535 1536 1536
1487 1489 1496 1498 1504 1504 1489 1480 1479 1482 1489 1484 1485 1487 1489 1490 1494 1496 1496 1497 1498 1499 1501 1503 1505 1507 1508 1510 1512 1514 1516 1518 1520 1522 1523 1525 1526 1528 1529 1530 1531 1532 1533 1534
1489 1490 1494 1496 1497 1491 1482 1480 1481 1492 1490 1483 1484 1486 1488 1490 1492 1494 1495 1496 1497 1498 1500 1501 1503 1504 1506 1508 1510 1512 1514 1516 1518 1520 1521 1523 1524 1525 1527 1528 1529 1530 1531 1532
1486 1490 1490 1490 1495 1495 1481 1481 1484 1485 1482 1483 1484 1486 1488 1490 1492 1493 1494 1495 1496 1497 1499 1500 1502 1503 1505 1507 1509 1510 1512 1514 1516 1518 1519 1520 1522 1523 1525 1526 1527 1528 1529 1529
1481 1483 1484 1486 1488 1482 1481 1481 1482 1482 1483 1484 1485 1487 1488 1490 1492 1493 1494 1494 1496 1497 1498 1499 1501 1502 1504 1506 1507 1509 1511 1513 1514 1516 1517 1518 1520 1521 1522 1523 1524 1525 1526 1526
1478 1478 1479 1480 1480 1480 1480 1481 1482 1483 1484 1485 1486 1488 1489 1490 1491 1492 1493 1494 1495 1496 1497 1498 1499 1501 1502 1504 1505 1507 1509 1511 1512 1514 1515 1516 1517 1519 1520 1521 1522 1523 1523 1523
1480 1479 1478 1478 1478 1478 1479 1480 1482 1482 1484 1485 1486 1487 1488 1489 1490 1491 1492 1493 1494 1494 1496 1497 1498 1499 1500 1502 1503 1505 1507 1509 1510 1511 1513 1514 1515 1516 1517 1518 1519 1520 1521 1521
1478 1479 1479 1478 1477 1477 1478 1479 1480 1482 1483 1484 1485 1486 1488 1489 1489 1490 1491 1491 1492 1493 1494 1495 1496 1497 1499 1500 1501 1503 1505 1506 1508 1509 1510 1512 1513 1514 1515 1515 1516 1517 1518 1519